TimeMST,TemperatureF,Dew PointF,Humidity,Sea Level PressureIn,VisibilityMPH,Wind Direction,Wind SpeedMPH,Gust SpeedMPH,PrecipitationIn,Events,Conditions,WindDirDegrees,DateUTC
12:53 AM,16.0,7.0,68,30.32,10.0,SW,10.4,-,N/A,,Clear,230,2013-01-02 07:53:00
1:53 AM,15.1,6.1,68,30.32,10.0,WSW,12.7,-,N/A,,Clear,240,2013-01-02 08:53:00
2:53 AM,17.1,7.0,65,30.34,10.0,SW,18.4,-,N/A,,Clear,220,2013-01-02 09:53:00
3:53 AM,14.0,5.0,67,30.35,10.0,SW,12.7,-,N/A,,Clear,230,2013-01-02 10:53:00
4:53 AM,12.9,5.0,71,30.35,10.0,SW,13.8,-,N/A,,Clear,230,2013-01-02 11:53:00
5:53 AM,12.0,3.9,70,30.36,10.0,SW,16.1,-,N/A,,Clear,220,2013-01-02 12:53:00
6:53 AM,9.0,1.9,73,30.40,10.0,SW,9.2,-,N/A,,Clear,230,2013-01-02 13:53:00
7:53 AM,12.9,3.9,67,30.42,10.0,WSW,13.8,-,N/A,,Clear,240,2013-01-02 14:53:00
8:53 AM,12.9,3.9,67,30.45,10.0,SW,11.5,-,N/A,,Clear,230,2013-01-02 15:53:00
9:53 AM,10.9,3.0,70,30.47,10.0,SW,8.1,-,N/A,,Clear,230,2013-01-02 16:53:00
10:53 AM,14.0,5.0,67,30.48,10.0,WSW,12.7,-,N/A,,Clear,240,2013-01-02 17:53:00
11:53 AM,26.1,7.0,44,30.45,10.0,SW,15.0,-,N/A,,Clear,230,2013-01-02 18:53:00
12:53 PM,32.0,9.0,38,30.43,10.0,SW,12.7,-,N/A,,Clear,230,2013-01-02 19:53:00
1:53 PM,32.0,10.0,40,30.41,10.0,SW,15.0,-,N/A,,Clear,230,2013-01-02 20:53:00
2:53 PM,33.1,10.0,38,30.41,10.0,SW,16.1,-,N/A,,Clear,220,2013-01-02 21:53:00
3:53 PM,35.1,10.9,37,30.41,10.0,SW,11.5,-,N/A,,Clear,230,2013-01-02 22:53:00
4:53 PM,30.9,9.0,40,30.41,10.0,SW,12.7,-,N/A,,Clear,230,2013-01-02 23:53:00
5:53 PM,30.0,7.0,38,30.40,10.0,SW,10.4,-,N/A,,Clear,230,2013-01-03 00:53:00
6:53 PM,25.0,5.0,43,30.40,10.0,SW,12.7,-,N/A,,Clear,220,2013-01-03 01:53:00
7:53 PM,30.0,5.0,35,30.37,10.0,SW,11.5,-,N/A,,Clear,220,2013-01-03 02:53:00
8:53 PM,30.0,6.1,36,30.35,10.0,SW,11.5,-,N/A,,Clear,230,2013-01-03 03:53:00
9:53 PM,28.0,7.0,41,30.35,10.0,SW,12.7,-,N/A,,Clear,230,2013-01-03 04:53:00
10:53 PM,32.0,10.0,40,30.31,10.0,SW,18.4,-,N/A,,Clear,230,2013-01-03 05:53:00
11:53 PM,27.0,7.0,43,30.28,10.0,SW,17.3,-,N/A,,Clear,230,2013-01-03 06:53:00